Showing default

ION SCV-011, 56957

Orbit data source: Space-Track

ION SCV-011, 56957 is a payload satellite owned by D-ORBIT (IT) in SSO that was launched on Mon, 12 Jun 2023 UTC via an FALCON 9 launch vehicle from the Air Force Western Test Range (AFWTR). Payload-class satellites include a variety of spacecraft equipped with specific instruments for various scientific and technological missions. These include communications satellites like Starlink; space stations such as the ISS; scientific satellites like the Hubble; Earth observation satellites from companies like Planet Labs, Umbra, and HawkEye 360; GPS; miniature CubeSats for education and research; and military/defense satellites.

Loading next visibility...
Identifier
56957, 2023-084AB
Orbit
SSO
Country
Flag of ITIT
Related business
Manufacturer
D-ORBIT
Mission
Operational Commercial Technology
Bus & Motor
ION-SC, PM200
Mass
220 kg wet, 150 kg dry
Launch date (UTC)
2023-06-12 (3 years ago)
Launch vehicle
FALCON 9
Launch site
Air Force Western Test Range (AFWTR)
Object type
Payload
Rocket body
Debris
Shape & HBR
Box, 0.2 m
Radar Cross Section
0.240 m², Medium (>0.1 m² and < 1m²)

Expand to show TLE details & history
Last TLE update: 11 hours ago

TLE from 11 hours ago
0 ION SCV-011
1 56957U 23084AB  25346.98809802  .00008993  00000-0  34854-3 0  9999
2 56957  98.1269 152.4091 0007028 332.9612  27.1257 15.26394770137384
Epoch: 2025-12-12T23:42Z
TLE epoch observation values (Epoch: 2025-12-12T23:42:51.668Z)
Latitude
-0.00009°
Longitude
74.772°
Altitude
485.384 km
Speed
7.625 km/s
True Right ascension
10h 09m 38s
True Declination
0° 00' 00"
Sunlit
Object was in daylight at epoch
Visualization orbit readout
Latitude
Unknown
Longitude
Unknown
Altitude
Unknown
Speed
Unknown
Apparent Right ascension
Unknown
Apparent Declination
Unknown
Sunlit
N/A
Visualization observer readout
Local Sidereal Time
09:16:24
Azimuth
Unknown
Elevation
Unknown
Doppler factor
Unknown
Orbital elements
Apogee altitude
488.413 km
Perigee altitude
478.768 km
Semi-major axis
6,861.727 km
Eccentricity
0.0007
Inclination
98.1269°
RAAN
152.4091°
Arg. of periapsis
332.9612°
True anomaly
27.16245°
Mean anomaly
27.1257°
Eccentric anomaly
27.14407°
Mean motion
3.8185 °/min
Orbital period
94.28 mins
BSTAR
0.00034854
Loading maneuver chart data...
Computing Atmospheric mass density...

Documentation

Showing up to 5 results
|